Wichita, KS

3:44 PM CDT on August 18, 2017 (GMT -0500)
Wichita Eisenhower National Airport

Weather History for KICT - June, 2014

Change the Weather History Date:

Friday, June 27, 2014

  Actual Average Record
Temperature  
Mean Temperature 79 °F 79 °F  
Max Temperature 84 °F 90 °F 109 °F (1980)
Min Temperature 73 °F 68 °F 46 °F (1968)
Degree Days  
Heating Degree Days 0 0  
Month to date heating degree days 0 3  
Since 1 June heating degree days 0 3  
Since 1 July heating degree days 4939 4591  
Cooling Degree Days 14 14  
Month to date cooling degree days 303 285  
Year to date cooling degree days 570 421  
Since 1 June cooling degree days 303 285  
Growing Degree Days 28 (Base 50)    
Moisture  
Dew Point 70 °F    
Average Humidity 76    
Maximum Humidity 87    
Minimum Humidity 65    
Precipitation  
Precipitation 0.10 in 0.16 in 2.35 in (1948)
Month to date precipitation 9.26 4.78  
Year to date precipitation 15.33 16.64  
Snow  
Snow 0.00 in 0.00 in 0.00 in (2007)
Month to date snowfall 0.0 0.0  
Since 1 June snowfall 0.0 0.0  
Since 1 July snowfall 23.0 14.9  
Snow Depth 0.00 in    
Sea Level Pressure  
Sea Level Pressure 29.73 in    
Wind  
Wind Speed 21 mph (SSE)    
Max Wind Speed 31 mph    
Max Gust Speed 39 mph    
Visibility 10 miles    
Events Rain , Thunderstorm    
T = Trace of Precipitation, MM = Missing Value Source: NWS Daily Summary

Daily Weather History Graph

Daily Weather History Graph

Search for Another Location

Airport or City:

Trip Planner

Search our weather history database for the weather conditions in past years. The results will help you decide how hot, cold, wet, or windy it might be!

Date:

Astronomy

Jun. 27, 2014 Rise Set
Actual Time 6:10 AM CDT 8:55 PM CDT
Civil Twilight 5:39 AM CDT 9:26 PM CDT
Nautical Twilight 4:59 AM CDT 10:05 PM CDT
Astronomical Twilight 4:15 AM CDT 10:49 PM CDT
Moon 6:39 AM CDT (6/27) 9:03 PM CDT (6/27)
Length of Visible Light 15h 47m
Length of Day
14h 45m
New Moon, 0% of the Moon is Illuminated
Jun 27
New Moon
Jul 5
First Quarter
Jul 12
Full
Jul 18
Last Quarter
Jul 26
New

Hourly Weather History & Observations

Time (CDT) Temp. Heat Index Dew Point Humidity Pressure Visibility Wind Dir Wind Speed Gust Speed Precip Events Conditions
12:53 AM 73.9 °F - 69.1 °F 85% 29.79 in 10.0 mi SSE 13.8 mph - N/A   Partly Cloudy
1:53 AM 73.9 °F - 69.1 °F 85% 29.76 in 10.0 mi SSE 17.3 mph - N/A   Partly Cloudy
2:53 AM 73.9 °F - 69.1 °F 85% 29.75 in 10.0 mi South 16.1 mph - N/A   Partly Cloudy
3:53 AM 73.0 °F - 68.0 °F 84% 29.75 in 9.0 mi South 16.1 mph - N/A   Partly Cloudy
4:53 AM 73.0 °F - 69.1 °F 87% 29.74 in 9.0 mi SSE 15.0 mph - N/A   Mostly Cloudy
5:53 AM 73.0 °F - 69.1 °F 87% 29.75 in 9.0 mi South 17.3 mph 25.3 mph N/A   Overcast
6:53 AM 73.4 °F - 69.8 °F 88% 29.78 in 8.0 mi South 20.7 mph 28.8 mph N/A   Overcast
7:53 AM 73.0 °F - 69.1 °F 87% 29.73 in 8.0 mi South 23.0 mph 28.8 mph N/A   Overcast
8:49 AM 75.2 °F - 69.8 °F 83% 29.76 in 9.0 mi South 20.7 mph 34.5 mph N/A   Mostly Cloudy
8:53 AM 75.0 °F - 69.1 °F 82% 29.71 in 10.0 mi South 21.9 mph 29.9 mph N/A   Mostly Cloudy
9:53 AM 79.0 °F - 70.0 °F 74% 29.73 in 10.0 mi South 24.2 mph 29.9 mph N/A   Overcast
10:49 AM 80.6 °F 83.9 °F 69.8 °F 70% 29.76 in 10.0 mi SSE 25.3 mph 33.4 mph N/A   Scattered Clouds
10:53 AM 80.1 °F 83.6 °F 71.1 °F 74% 29.71 in 10.0 mi South 25.3 mph 33.4 mph N/A   Scattered Clouds
11:16 AM 81.0 °F 84.9 °F 71.1 °F 72% 29.76 in 10.0 mi SSE 24.2 mph 31.1 mph N/A   Mostly Cloudy
11:35 AM 82.0 °F 86.3 °F 71.1 °F 69% 29.76 in 10.0 mi SSE 26.5 mph 32.2 mph N/A   Scattered Clouds
11:53 AM 81.0 °F 84.4 °F 70.0 °F 69% 29.71 in 10.0 mi SSE 25.3 mph 33.4 mph N/A   Scattered Clouds
12:53 PM 82.4 °F 87.2 °F 71.6 °F 70% 29.75 in 10.0 mi SSE 26.5 mph 36.8 mph N/A   Mostly Cloudy
1:46 PM 84.0 °F 89.0 °F 71.1 °F 65% 29.75 in 10.0 mi South 27.6 mph 35.7 mph N/A   Mostly Cloudy
1:53 PM 82.9 °F 87.0 °F 70.0 °F 65% 29.71 in 10.0 mi South 29.9 mph 38.0 mph N/A   Overcast
2:53 PM 78.1 °F - 70.0 °F 76% 29.72 in 10.0 mi SSE 17.3 mph 28.8 mph 0.01 in Thunderstorm Thunderstorm
3:53 PM 77.0 °F - 71.1 °F 82% 29.71 in 10.0 mi South 17.3 mph 26.5 mph 0.06 in Rain , Thunderstorm Light Thunderstorms and Rain
4:53 PM 79.0 °F - 71.1 °F 77% 29.69 in 10.0 mi SSE 19.6 mph 26.5 mph 0.02 in Thunderstorm Thunderstorm
5:35 PM 81.0 °F 84.9 °F 71.1 °F 72% 29.72 in 10.0 mi SE 21.9 mph 29.9 mph 0.00 in   Mostly Cloudy
5:53 PM 81.0 °F 84.9 °F 71.1 °F 72% 29.68 in 10.0 mi SE 17.3 mph 24.2 mph 0.00 in   Mostly Cloudy
6:53 PM 82.0 °F 85.9 °F 70.0 °F 67% 29.66 in 10.0 mi SSE 19.6 mph 36.8 mph N/A   Scattered Clouds
7:53 PM 80.1 °F 83.2 °F 70.0 °F 71% 29.67 in 10.0 mi SSE 23.0 mph 28.8 mph N/A   Scattered Clouds
8:53 PM 78.1 °F - 70.0 °F 76% 29.68 in 10.0 mi SSE 21.9 mph 29.9 mph N/A   Scattered Clouds
9:53 PM 78.1 °F - 70.0 °F 76% 29.70 in 10.0 mi SSE 18.4 mph - N/A   Mostly Cloudy
10:34 PM 78.1 °F - 70.0 °F 76% 29.75 in 9.0 mi SE 19.6 mph 29.9 mph 0.00 in Rain , Thunderstorm Light Thunderstorms and Rain
10:53 PM 77.0 °F - 70.0 °F 79% 29.71 in 9.0 mi SSE 19.6 mph 26.5 mph 0.01 in Rain , Thunderstorm Light Thunderstorms and Rain
11:34 PM 77.0 °F - 70.0 °F 79% 29.74 in 9.0 mi SE 24.2 mph 36.8 mph 0.00 in   Overcast
11:53 PM 75.9 °F - 70.0 °F 82% 29.70 in 9.0 mi SSE 24.2 mph 34.5 mph 0.00 in   Overcast